Change the Weather History Date:

Monday, May 26, 2014

  Actual Average Record
Temperature  
Mean Temperature 70 °F -  
Max Temperature 84 °F 81 °F 96 °F (1953)
Min Temperature 57 °F 61 °F 42 °F (1979)
Cooling Degree Days 6    
Growing Degree Days 20 (Base 50)    
Moisture  
Dew Point 63 °F    
Average Humidity 78    
Maximum Humidity 100    
Minimum Humidity 53    
Precipitation  
Precipitation 0.00 in - - ()
Sea Level Pressure  
Sea Level Pressure 30.16 in    
Wind  
Wind Speed 3 mph (SSW)    
Max Wind Speed 10 mph    
Max Gust Speed 16 mph    
Visibility 9 miles    
Events      
Averages and records for this station are not official NWS values.
T = Trace of Precipitation, MM = Missing Value Source: NWS Daily Summary

Daily Weather History Graph

Daily Weather History Graph

Search for Another Location

Airport or City:

Trip Planner

Search our weather history database for the weather conditions in past years. The results will help you decide how hot, cold, wet, or windy it might be!

Date:

Astronomy

May. 26, 2014 Rise Set
Actual Time 6:13 AM EDT 8:29 PM EDT
Civil Twilight 5:45 AM EDT 8:57 PM EDT
Nautical Twilight 5:09 AM EDT 9:33 PM EDT
Astronomical Twilight 4:31 AM EDT 10:11 PM EDT
Moon 4:49 AM EDT (5/26) 6:34 PM EDT (5/26)
Length of Visible Light 15h 12m
Length of Day
14h 15m
Waning Crescent, 5% of the Moon is Illuminated
May 26
Waning Crescent
May 28
New
Jun 5
First Quarter
Jun 13
Full
Jun 19
Last Quarter

Hourly Weather History & Observations

Time (EDT) Temp. Heat Index Dew Point Humidity Pressure Visibility Wind Dir Wind Speed Gust Speed Precip Events Conditions
12:54 AM 63.0 °F - 60.1 °F 90% 30.17 in 10.0 mi Calm Calm - N/A   Clear
1:54 AM 61.0 °F - 59.0 °F 93% 30.16 in 10.0 mi Calm Calm - N/A   Clear
2:54 AM 60.1 °F - 59.0 °F 96% 30.17 in 10.0 mi Calm Calm - N/A   Clear
3:54 AM 59.0 °F - 57.9 °F 96% 30.17 in 8.0 mi Calm Calm - N/A   Clear
4:54 AM 57.9 °F - 57.9 °F 100% 30.18 in 8.0 mi Calm Calm - N/A   Clear
5:19 AM 59.0 °F - 57.9 °F 96% 30.20 in 7.0 mi Calm Calm - N/A   Mostly Cloudy
5:54 AM 61.0 °F - 60.1 °F 97% 30.18 in 9.0 mi Calm Calm - N/A   Overcast
6:10 AM 61.0 °F - 60.1 °F 97% 30.21 in 9.0 mi Calm Calm - N/A   Overcast
6:15 AM 62.1 °F - 60.1 °F 93% 30.21 in 9.0 mi Calm Calm - N/A   Overcast
6:54 AM 63.0 °F - 61.0 °F 93% 30.19 in 9.0 mi South 3.5 mph - N/A   Overcast
7:15 AM 64.0 °F - 61.0 °F 90% 30.22 in 9.0 mi SSW 3.5 mph - N/A   Scattered Clouds
7:54 AM 64.9 °F - 62.1 °F 90% 30.19 in 8.0 mi SW 3.5 mph - N/A   Clear
8:54 AM 69.1 °F - 63.0 °F 81% 30.20 in 8.0 mi South 4.6 mph - N/A   Clear
9:54 AM 73.0 °F - 62.1 °F 68% 30.20 in 10.0 mi Variable 4.6 mph - N/A   Clear
10:54 AM 75.9 °F - 63.0 °F 64% 30.19 in 10.0 mi Variable 6.9 mph - N/A   Clear
11:54 AM 79.0 °F - 63.0 °F 58% 30.19 in 10.0 mi Variable 4.6 mph - N/A   Clear
12:54 PM 82.0 °F 83.8 °F 64.9 °F 56% 30.17 in 10.0 mi SW 6.9 mph - N/A   Clear
1:54 PM 82.9 °F 84.4 °F 64.0 °F 53% 30.16 in 10.0 mi SW 9.2 mph 16.1 mph N/A   Clear
2:54 PM 82.9 °F 85.0 °F 66.0 °F 56% 30.13 in 10.0 mi North - - N/A   Partly Cloudy
3:54 PM 84.0 °F 86.5 °F 66.9 °F 56% 30.11 in 10.0 mi SSW 10.4 mph - N/A   Partly Cloudy
4:54 PM 82.9 °F 85.0 °F 66.0 °F 56% 30.09 in 10.0 mi SW 8.1 mph - N/A   Clear
5:54 PM 82.9 °F 85.0 °F 66.0 °F 56% 30.09 in 10.0 mi SSW 10.4 mph - N/A   Clear
6:54 PM 81.0 °F 83.0 °F 66.0 °F 60% 30.09 in 9.0 mi SW 10.4 mph - N/A   Clear
7:54 PM 80.1 °F 82.3 °F 66.9 °F 64% 30.09 in 8.0 mi SW 5.8 mph - N/A   Partly Cloudy
8:54 PM 75.0 °F - 66.9 °F 76% 30.09 in 9.0 mi SSW 5.8 mph - N/A   Clear
9:54 PM 75.9 °F - 66.9 °F 74% 30.10 in 9.0 mi South 4.6 mph - N/A   Partly Cloudy
10:54 PM 73.0 °F - 66.9 °F 81% 30.11 in 9.0 mi SW 6.9 mph - N/A   Clear
11:54 PM 71.1 °F - 66.9 °F 87% 30.11 in 8.0 mi SSW 5.8 mph - N/A   Partly Cloudy